This demonstration page uses our WeatherBlox Daily Observations layout. Learn more.

Left ArrowRight Arrow

39.51506, -84.39828

Hourly Observations for March 30, 2017

Temp ( °F °C ) Dew Point ( °F °C ) Humidity (%) Winds ( mph kmh ) Pressure ( in mb ) Visibility ( mi km ) Precip ( " mm )
12:15 am 00:15 Clear 55 12.5 38 3.4 54 54 Calm 30.03 1017 10 16 0.00 0.00
12:35 am 00:35 Clear 55 12.5 40 4.7 59 59 Calm 30.03 1017 10 16 0.00 0.00
12:55 am 00:55 Clear 55 12.5 42 5.5 63 63 Calm 30.03 1017 10 16 0.00 0.00
1:15 am 01:15 Clear 54 12.4 44 6.5 68 68 Calm 30.03 1017 10 16 0.00 0.00
1:35 am 01:35 Clear 55 12.5 44 6.4 67 67 Calm 30.00 1016 10 16 0.00 0.00
1:55 am 01:55 Clear 54 12.4 43 6 65 65 Calm 30.00 1016 10 16 0.00 0.00
2:15 am 02:15 Clear 53 11.9 42 5.6 66 66 Calm 30.00 1016 10 16 0.00 0.00
2:35 am 02:35 Clear 52 11 41 4.8 66 66 Calm 29.97 1015 10 16 0.00 0.00
2:55 am 02:55 Clear 52 11 41 5 67 67 Calm 29.97 1015 10 16 0.00 0.00
3:15 am 03:15 Clear 55 12.5 43 5.9 64 64 Calm 29.97 1015 10 16 0.00 0.00
3:35 am 03:35 Clear 52 11 41 4.9 66 66 Calm 29.97 1015 10 16 0.00 0.00
3:55 am 03:55 Mostly Cloudy 55 12.5 43 6 65 65 Calm 29.94 1014 10 16 0.00 0.00
4:15 am 04:15 Partly Cloudy 55 12.5 43 5.9 64 64 Calm 29.94 1014 10 16 0.00 0.00
4:35 am 04:35 Mostly Cloudy 55 12.5 42 5.5 63 63 Calm 29.94 1014 10 16 0.00 0.00
4:55 am 04:55 Partly Cloudy 55 12.5 42 5.4 62 62 Calm 29.91 1013 10 16 0.00 0.00
5:15 am 05:15 Clear 55 12.5 41 5 61 61 Calm 29.91 1013 10 16 0.00 0.00
5:35 am 05:35 Partly Cloudy 55 12.5 40 4.6 59 59 Calm 29.88 1012 10 16 0.00 0.00
5:55 am 05:55 Mostly Cloudy 55 12.5 39 4.1 57 57 Calm 29.88 1012 10 16 0.00 0.00
6:15 am 06:15 Cloudy 55 12.5 38 3.6 55 55 Calm 29.88 1012 10 16 0.00 0.00
6:35 am 06:35 Mostly Cloudy 55 12.5 38 3.6 55 55 Calm 29.88 1012 10 16 0.00 0.00
6:55 am 06:55 Mostly Cloudy 55 12.5 38 3.2 53 53 Calm 29.88 1012 10 16 0.00 0.00
7:15 am 07:15 Mostly Cloudy 55 12.5 38 3.4 54 54 Calm 29.88 1012 10 16 0.00 0.00
7:35 am 07:35 Mostly Cloudy 55 12.5 38 3.4 54 54 Calm 29.88 1012 10 16 0.00 0.00
7:55 am 07:55 Cloudy 55 12.5 38 3.4 54 54 Calm 29.88 1012 10 16 0.00 0.00
8:15 am 08:15 Mostly Cloudy 53 11.4 38 3.2 57 57 Calm 29.88 1012 10 16 0.00 0.00
8:35 am 08:35 Partly Cloudy 55 12.5 39 3.7 55 55 Calm 29.88 1012 10 16 0.00 0.00
8:55 am 08:55 Partly Cloudy 55 12.5 38 3.3 54 54 Calm 29.88 1012 10 16 0.00 0.00
9:15 am 09:15 Mostly Cloudy 55 12.5 38 3.1 53 53 Calm 29.85 1011 10 16 0.00 0.00
9:35 am 09:35 Partly Cloudy 56 13.1 38 3.6 53 53 Calm 29.85 1011 10 16 0.00 0.00
9:55 am 09:55 Mostly Cloudy 57 13.8 40 4.3 53 53 Calm 29.83 1010 10 16 0.00 0.00
10:15 am 10:15 Cloudy 57 13.8 40 4.3 53 53 undefined N/A 29.83 1010 10 16 0.00 0.00
10:35 am 10:35 Cloudy 60 15.3 43 6.1 54 54 undefined N/A 29.83 1010 10 16 0.00 0.00
10:55 am 10:55 Mostly Cloudy with Rain 60 15.4 43 6.2 54 54 SE 3 6 29.83 1010 10 16 0.00 0.00
11:15 am 11:15 Mostly Cloudy 61 16 44 6.7 54 54 SE 3 6 29.80 1009 10 16 0.00 0.00
11:35 am 11:35 Partly Cloudy 62 16.6 45 7 53 53 SE 5 7 29.77 1008 10 16 0.00 0.00
11:55 am 11:55 Sunny 64 18 46 7.8 52 52 SE 5 7 29.77 1008 10 16 0.00 0.00
12:15 pm 12:15 Partly Cloudy 69 20.8 50 9.9 50 50 SSE 9 15 29.77 1008 10 16 0.00 0.00
12:35 pm 12:35 Partly Cloudy 70 21.1 49 9.6 48 48 SSE 10 17 29.74 1007 10 16 0.00 0.00
12:55 pm 12:55 Mostly Cloudy 74 23.3 53 11.6 48 48 S 8 13 29.74 1007 10 16 0.00 0.00
1:15 pm 13:15 Partly Cloudy 74 23.6 51 10.6 44 44 SSE 13 20 29.71 1006 10 16 0.00 0.00
1:35 pm 13:35 Sunny 74 23.6 50 10 42 42 S 12 19 29.71 1006 10 16 0.00 0.00
1:55 pm 13:55 Sunny 76 24.3 50 9.9 40 40 S 13 20 29.68 1005 10 16 0.00 0.00
2:15 pm 14:15 Sunny 78 25.3 50 9.9 38 38 S 13 20 29.65 1004 10 16 0.00 0.00
2:35 pm 14:35 Sunny 79 26.3 47 8.2 32 32 S 16 26 29.62 1003 10 16 0.00 0.00
2:55 pm 14:55 Sunny 80 26.5 42 5.8 27 27 S 16 26 29.62 1003 10 16 0.00 0.00
3:15 pm 15:15 Sunny 80 26.8 40 4.2 23 23 S 18 30 29.62 1003 10 16 0.00 0.00
3:35 pm 15:35 Partly Cloudy 80 26.5 41 5 25 25 S 21 33 29.62 1003 10 16 0.00 0.00
3:55 pm 15:55 Partly Cloudy 80 26.5 43 6 27 27 S 14 22 29.59 1002 10 16 0.00 0.00
4:15 pm 16:15 Mostly Cloudy 80 26.5 42 5.8 27 27 SSW 16 26 29.59 1002 10 16 0.00 0.00
4:35 pm 16:35 Partly Cloudy 80 26.5 40 4.3 24 24 S 22 35 29.59 1002 10 16 0.00 0.00
4:55 pm 16:55 Sunny 79 25.9 40 4.4 25 25 SSW 15 24 29.59 1002 10 16 0.00 0.00
5:15 pm 17:15 Partly Cloudy 78 25.3 40 4.4 26 26 SSW 21 33 29.59 1002 10 16 0.00 0.00
5:35 pm 17:35 Mostly Cloudy 77 25.1 41 5.1 28 28 S 14 22 29.56 1001 10 16 0.00 0.00
5:55 pm 17:55 Cloudy 77 25.1 40 4.6 27 27 S 14 22 29.56 1001 10 16 0.00 0.00
6:15 pm 18:15 Cloudy 77 25.1 42 5.5 28 28 SSW 12 19 29.56 1001 10 16 0.00 0.00
6:35 pm 18:35 Cloudy with Light Rain 77 25 44 6.6 31 31 SSW 21 33 29.59 1002 10 16 0.00 0.00
6:55 pm 18:55 Cloudy 74 23.6 49 9.4 41 41 SSW 13 20 29.62 1003 10 16 0.00 0.00
7:15 pm 19:15 Partly Cloudy 74 23.6 51 10.4 43 43 SSW 9 15 29.62 1003 10 16 0.00 0.00
7:35 pm 19:35 Sunny 74 23.6 52 11.2 46 46 SSW 8 13 29.62 1003 10 16 0.00 0.00
7:55 pm 19:55 Sunny 74 23.6 50 10.1 43 43 SSW 10 17 29.62 1003 10 16 0.00 0.00
8:15 pm 20:15 Clear 74 23.6 48 8.8 39 39 SSW 10 17 29.62 1003 10 16 0.00 0.00
8:35 pm 20:35 Clear 74 23.6 48 8.7 39 39 SSW 10 17 29.62 1003 10 16 0.00 0.00
8:55 pm 20:55 Clear 74 23.6 49 9.3 40 40 SSW 10 17 29.62 1003 10 16 0.00 0.00
9:15 pm 21:15 Partly Cloudy 71 21.6 48 8.7 44 44 SSW 7 11 29.62 1003 10 16 0.00 0.00
9:35 pm 21:35 Partly Cloudy 70 21.1 48 8.7 45 45 SSW 7 11 29.62 1003 10 16 0.00 0.00
9:55 pm 21:55 Mostly Cloudy 69 20.8 48 8.7 46 46 SSW 6 9 29.62 1003 10 16 0.00 0.00
10:15 pm 22:15 Cloudy 66 18.7 50 10 57 57 NW 17 28 29.65 1004 10 16 0.00 0.00
10:35 pm 22:35 Cloudy 63 17.4 49 9.6 60 60 NNW 13 20 29.65 1004 10 16 0.00 0.00
10:55 pm 22:55 Cloudy 62 16.6 49 9.5 63 63 N 9 15 29.65 1004 10 16 0.00 0.00
11:15 pm 23:15 Cloudy with Heavy Rain 60 15.6 51 10.7 73 73 WNW 10 17 29.68 1005 3 5 0.00 0.00
11:35 pm 23:35 Cloudy with Rain 60 15.3 53 11.4 78 78 NE 5 7 29.68 1005 7 11 0.00 0.00
11:55 pm 23:55 Cloudy 60 15.3 53 11.7 79 79 N 3 6 29.68 1005 10 16 0.00 0.00

Powered by AerisWeather